Location: Unspecified
(0.0000°N, 0.0000°E)
Time: 18:49:58
(UTC+00:00)

ISS - Pass Details

Date: 24 November 2017
Orbit: 402 x 407 km, 51.6° (Epoch: 21 November)

Event Time Altitude Azimuth Distance (km) Brightness Sun altitude
Exits shadow 04:12:00 10° 31° (NNE) 1,427 -1.0 -22.1°
Maximum altitude 04:13:15 12° 54° (NE) 1,328 -0.9 -21.8°
Drops below altitude 10° 04:14:34 10° 78° (ENE) 1,443 -0.3 -21.5°
Sets 04:17:41 0° 111° (ESE) 2,306 1.6 -20.8°
